TimeEDT,TemperatureF,Dew PointF,Humidity,Sea Level PressureIn,VisibilityMPH,Wind Direction,Wind SpeedMPH,Gust SpeedMPH,PrecipitationIn,Events,Conditions,WindDirDegrees,DateUTC
1:45 AM,41.0,41.0,100,30.13,10.0,Calm,Calm,-,N/A,,Clear,0,2012-10-08 05:45:00
2:45 AM,41.0,39.2,93,30.13,10.0,Calm,Calm,-,N/A,,Clear,0,2012-10-08 06:45:00
3:45 AM,41.0,41.0,100,30.14,10.0,Calm,Calm,-,N/A,,Clear,0,2012-10-08 07:45:00
4:45 AM,41.0,41.0,100,30.15,10.0,Calm,Calm,-,N/A,,Clear,0,2012-10-08 08:45:00
5:45 AM,41.0,39.2,93,30.15,10.0,Calm,Calm,-,N/A,,Clear,0,2012-10-08 09:45:00
6:45 AM,39.2,39.2,100,30.19,10.0,WSW,6.9,-,N/A,,Clear,250,2012-10-08 10:45:00
7:45 AM,41.0,39.2,93,30.22,20.0,WNW,8.1,-,N/A,,Scattered Clouds,290,2012-10-08 11:45:00
8:45 AM,42.8,41.0,93,30.25,20.0,West,6.9,-,N/A,,Mostly Cloudy,260,2012-10-08 12:45:00
9:45 AM,44.6,41.0,87,30.26,20.0,West,11.5,-,N/A,,Mostly Cloudy,280,2012-10-08 13:45:00
10:45 AM,48.2,42.8,82,30.29,20.0,West,8.1,-,N/A,,Mostly Cloudy,270,2012-10-08 14:45:00
11:50 AM,50.0,42.8,76,30.28,20.0,West,5.8,-,N/A,,Mostly Cloudy,270,2012-10-08 15:50:00
1:45 PM,53.6,41.0,62,30.26,20.0,Calm,Calm,-,N/A,,Mostly Cloudy,0,2012-10-08 17:45:00
2:45 PM,53.6,41.0,62,30.26,20.0,Calm,Calm,-,N/A,,Mostly Cloudy,0,2012-10-08 18:45:00
3:04 PM,53.6,42.8,67,30.25,20.0,Variable,4.6,-,N/A,,Mostly Cloudy,0,2012-10-08 19:04:00
4:45 PM,53.6,41.0,62,30.25,20.0,Variable,4.6,-,N/A,,Mostly Cloudy,0,2012-10-08 20:45:00
6:45 PM,51.8,42.8,71,30.28,20.0,Variable,4.6,-,N/A,,Mostly Cloudy,0,2012-10-08 22:45:00
8:45 PM,46.4,44.6,93,30.27,10.0,Variable,4.6,-,N/A,,Scattered Clouds,0,2012-10-09 00:45:00
9:45 PM,46.4,44.6,93,30.28,10.0,Calm,Calm,-,N/A,,Mostly Cloudy,0,2012-10-09 01:45:00
10:45 PM,48.2,46.4,93,30.28,10.0,Calm,Calm,-,N/A,,Overcast,0,2012-10-09 02:45:00
11:45 PM,-9999,46.4,N/A,30.27,10.0,Calm,Calm,-,N/A,,Overcast,0,2012-10-09 03:45:00